Beatrice, NE

1:47 PM CDT on October 21, 2017 (GMT -0500)
Beatrice Municipal

Weather History for KBIE - January, 2001

Change the Weather History Date:

Thursday, January 4, 2001

  Actual Average Record
Temperature  
Mean Temperature 30 °F -  
Max Temperature 44 °F 26 °F 59 °F (2012)
Min Temperature 15 °F 9 °F -15 °F (1959)
Degree Days  
Heating Degree Days 36    
Moisture  
Dew Point 22 °F    
Average Humidity 75    
Maximum Humidity 93    
Minimum Humidity 49    
Precipitation  
Precipitation 0.00 in - - ()
Sea Level Pressure  
Sea Level Pressure 30.02 in    
Wind  
Wind Speed 5 mph (SW)    
Max Wind Speed 17 mph    
Max Gust Speed 25 mph    
Visibility 10 miles    
Events      
Averages and records for this station are not official NWS values.
T = Trace of Precipitation, MM = Missing Value Source: NWS Daily Summary

Daily Weather History Graph

Daily Weather History Graph

Search for Another Location

Airport or City:

Trip Planner

Search our weather history database for the weather conditions in past years. The results will help you decide how hot, cold, wet, or windy it might be!

Date:

Astronomy

Jan. 04, 2001 Rise Set
Actual Time 7:50 AM CST 5:14 PM CST
Civil Twilight 7:19 AM CST 5:44 PM CST
Nautical Twilight 6:45 AM CST 6:18 PM CST
Astronomical Twilight 6:12 AM CST 6:51 PM CST
Moon 1:22 PM CST (1/4) 1:54 AM CST (1/4)
Length of Visible Light 10h 25m
Length of Day
9h 24m
Waxing Gibbous, 68% of the Moon is Illuminated
Jan 4
Waxing Gibbous
Jan 9
Full
Jan 16
Last Quarter
Jan 24
New
Feb 1
First Quarter

Hourly Weather History & Observations

Time (CST) Temp. Windchill Dew Point Humidity Pressure Visibility Wind Dir Wind Speed Gust Speed Precip Events Conditions
12:11 AM 19.4 °F - 15.8 °F 86% 30.20 in 10.0 mi Calm Calm - N/A   Clear
12:52 AM 17.6 °F 12.3 °F 15.8 °F 93% 30.19 in 10.0 mi North 3.5 mph - N/A   Clear
1:31 AM 19.4 °F - 15.8 °F 86% 30.18 in 10.0 mi Calm Calm - N/A   Clear
1:49 AM 19.4 °F 14.3 °F 15.8 °F 86% 30.17 in 10.0 mi South 3.5 mph - N/A   Clear
2:09 AM 19.4 °F 12.8 °F 15.8 °F 86% 30.17 in 10.0 mi SSW 4.6 mph - N/A   Clear
2:29 AM 19.4 °F 12.8 °F 17.6 °F 93% 30.17 in 10.0 mi SSW 4.6 mph - N/A   Clear
2:53 AM 19.4 °F - 15.8 °F 86% 30.17 in 10.0 mi Calm Calm - N/A   Clear
3:49 AM 15.8 °F - 12.2 °F 86% 30.13 in 10.0 mi Calm Calm - N/A   Clear
4:09 AM 15.8 °F - 12.2 °F 86% 30.13 in 10.0 mi Calm Calm - N/A   Clear
4:33 AM 15.8 °F - 12.2 °F 86% 30.13 in 10.0 mi Calm Calm - N/A   Clear
4:49 AM 15.8 °F - 12.2 °F 86% 30.12 in 10.0 mi Calm Calm - N/A   Clear
5:11 AM 15.8 °F 8.6 °F 14.0 °F 93% 30.11 in 10.0 mi South 4.6 mph - N/A   Clear
5:29 AM 17.6 °F 10.7 °F 15.8 °F 93% 30.10 in 10.0 mi South 4.6 mph - N/A   Clear
5:51 AM 19.4 °F 11.5 °F 15.8 °F 86% 30.09 in 10.0 mi South 5.8 mph - N/A   Clear
6:09 AM 17.6 °F 12.3 °F 15.8 °F 93% 30.09 in 10.0 mi SSE 3.5 mph - N/A   Clear
6:33 AM 19.4 °F 11.5 °F 15.8 °F 86% 30.08 in 10.0 mi South 5.8 mph - N/A   Clear
6:57 AM 21.2 °F 14.9 °F 17.6 °F 86% 30.07 in 10.0 mi South 4.6 mph - N/A   Clear
7:09 AM 19.4 °F 14.3 °F 17.6 °F 93% 30.07 in 10.0 mi South 3.5 mph - N/A   Clear
7:31 AM 19.4 °F 10.4 °F 17.6 °F 93% 30.05 in 10.0 mi SSE 6.9 mph - N/A   Clear
7:49 AM 19.4 °F 14.3 °F 17.6 °F 93% 30.05 in 10.0 mi South 3.5 mph - N/A   Clear
8:09 AM 21.2 °F 13.6 °F 19.4 °F 93% 30.05 in 10.0 mi South 5.8 mph - N/A   Clear
8:34 AM 21.2 °F 14.9 °F 19.4 °F 93% 30.04 in 10.0 mi South 4.6 mph - N/A   Clear
8:49 AM 23.0 °F 17.0 °F 19.4 °F 86% 30.03 in 10.0 mi South 4.6 mph - N/A   Clear
9:10 AM 24.8 °F 17.9 °F 21.2 °F 86% 30.03 in 10.0 mi South 5.8 mph - N/A   Clear
9:30 AM 26.6 °F 18.2 °F 21.2 °F 80% 30.02 in 10.0 mi South 8.1 mph - N/A   Clear
9:51 AM 28.4 °F 20.4 °F 23.0 °F 80% 30.02 in 10.0 mi South 8.1 mph - N/A   Clear
10:14 AM 33.8 °F 25.3 °F 24.8 °F 70% 30.02 in 10.0 mi SSW 11.5 mph - N/A   Clear
10:50 AM 35.6 °F 26.6 °F 24.8 °F 65% 30.00 in 10.0 mi SSW 13.8 mph - N/A   Clear
11:31 AM 37.4 °F 29.8 °F 26.6 °F 65% 29.98 in 10.0 mi SSW 11.5 mph - N/A   Clear
11:53 AM 37.4 °F 29.3 °F 26.6 °F 65% 29.96 in 10.0 mi SSW 12.7 mph - N/A   Clear
12:10 PM 39.2 °F 30.5 °F 26.6 °F 61% 29.94 in 10.0 mi SSW 16.1 mph - N/A   Clear
12:30 PM 39.2 °F 31.6 °F 26.6 °F 61% 29.92 in 10.0 mi SSW 12.7 mph - N/A   Clear
1:10 PM 44.6 °F 38.8 °F 26.6 °F 49% 29.89 in 10.0 mi SW 11.5 mph 17.3 mph N/A   Clear
1:31 PM 44.6 °F 39.7 °F 26.6 °F 49% 29.88 in 10.0 mi SW 9.2 mph - N/A   Clear
1:57 PM 44.6 °F 38.4 °F 28.4 °F 53% 29.88 in 10.0 mi SW 12.7 mph - N/A   Clear
2:10 PM 44.6 °F 38.8 °F 28.4 °F 53% 29.88 in 10.0 mi SW 11.5 mph - N/A   Clear
2:51 PM 44.6 °F 38.8 °F 28.4 °F 53% 29.89 in 10.0 mi WSW 11.5 mph - N/A   Clear
3:30 PM 44.6 °F 38.8 °F 28.4 °F 53% 29.89 in 10.0 mi West 11.5 mph - N/A   Clear
3:51 PM 44.6 °F 37.8 °F 28.4 °F 53% 29.89 in 10.0 mi West 15.0 mph - N/A   Clear
4:30 PM 42.8 °F 36.2 °F 30.2 °F 61% 29.90 in 10.0 mi West 12.7 mph - N/A   Clear
4:51 PM 41.0 °F 35.2 °F 30.2 °F 65% 29.92 in 10.0 mi West 9.2 mph - N/A   Clear
5:10 PM 39.2 °F 33.0 °F 30.2 °F 70% 29.94 in 10.0 mi WNW 9.2 mph - N/A   Clear
5:31 PM 39.2 °F 33.0 °F 30.2 °F 70% 29.94 in 10.0 mi West 9.2 mph - N/A   Clear
5:50 PM 39.2 °F 33.0 °F 30.2 °F 70% 29.94 in 10.0 mi West 9.2 mph - N/A   Clear
6:11 PM 37.4 °F 30.8 °F 28.4 °F 70% 29.95 in 10.0 mi West 9.2 mph - N/A   Clear
6:29 PM 37.4 °F 32.1 °F 28.4 °F 70% 29.97 in 10.0 mi WNW 6.9 mph - N/A   Clear
6:51 PM 35.6 °F 29.2 °F 28.4 °F 75% 29.98 in 10.0 mi West 8.1 mph - N/A   Clear
7:33 PM 37.4 °F 30.8 °F 28.4 °F 70% 29.98 in 10.0 mi West 9.2 mph - N/A   Clear
7:51 PM 37.4 °F 30.3 °F 28.4 °F 70% 29.98 in 10.0 mi West 10.4 mph - N/A   Clear
8:09 PM 41.0 °F 32.5 °F 28.4 °F 61% 29.99 in 10.0 mi WNW 17.3 mph - N/A   Clear
8:31 PM 42.8 °F 36.2 °F 28.4 °F 57% 30.00 in 10.0 mi WNW 12.7 mph - N/A   Clear
8:49 PM 42.8 °F 35.4 °F 28.4 °F 57% 30.01 in 10.0 mi NW 15.0 mph 25.3 mph N/A   Clear
9:11 PM 42.8 °F 34.8 °F 28.4 °F 57% 30.02 in 10.0 mi WNW 17.3 mph 21.9 mph N/A   Clear
9:53 PM 41.0 °F 33.5 °F 28.4 °F 61% 30.02 in 10.0 mi WNW 13.8 mph - N/A   Clear
10:09 PM 39.2 °F 31.2 °F 28.4 °F 65% 30.03 in 10.0 mi WNW 13.8 mph - N/A   Clear
10:31 PM 39.2 °F 31.2 °F 28.4 °F 65% 30.03 in 10.0 mi WNW 13.8 mph - N/A   Clear
10:49 PM 37.4 °F 30.3 °F 28.4 °F 70% 30.03 in 10.0 mi WNW 10.4 mph - N/A   Clear
11:11 PM 35.6 °F 28.0 °F 26.6 °F 70% 30.03 in 10.0 mi West 10.4 mph - N/A   Clear
11:51 PM 35.6 °F 28.0 °F 26.6 °F 70% 30.04 in 10.0 mi WNW 10.4 mph - N/A   Clear